Home > Weather > Tacoma > Past weeks

Flag for USA Weather for the Past 2 Weeks in Tacoma, Washington, USA

Now
75 °F

Sunny.


Feels Like: 77 °F
Forecast: 54 / 70 °F
Wind: 9 mph from West

Location: Tacoma Narrows Airport

Current Time: May 2, 2016 at 8:37:30 PM

Latest Report: May 2, 2016 at 6:53 PM


Visibility: 10 mi

Pressure: 29.88 "Hg

Humidity: 33%

Dew Point: 44 °F

Location of TacomaLocation

Historic Weather in Tacoma — Graph

°F

Tacoma Temperature Yesterday

Maximum temperature yesterday: 75 °F (at 3:53 PM)
Minimum temperature yesterday: 50 °F (at 4:53 AM)
Average temperature yesterday: 62 °F

High & Low Weather Summary for the Past Weeks

 TemperatureHumidityPressure
High84 °F (May 2, 2:53 PM)97% (Apr 22, 5:53 AM)30.38 "Hg (Apr 22, 5:53 AM)
Low41 °F (Apr 26, 4:53 AM)20% (May 2, 2:53 PM)29.62 "Hg (Apr 22, 7:53 AM)
Average55 °F70%30.03 "Hg
* Reported Apr 18 6:53 AM — May 2 6:53 PM, Tacoma, Weather by CustomWeather, © 2016

Note: Actual official high and low records may vary slightly from our data, if they occured in-between our weather recording intervals... More about our weather records

Advertising

Tacoma Weather History for the Previous 24 Hours

Scroll right to see more
 ConditionsComfort  
Time TempWeatherWind HumidityBarometerVisibility
6:53 PM
Mon, May 2
75 °FSunny.9 mph33%29.88 "Hg10 mi
5:53 PM81 °FSunny.12 mph28%29.88 "Hg10 mi
4:53 PM84 °FSunny.6 mph24%29.88 "Hg10 mi
3:53 PM84 °FSunny.7 mph23%29.90 "Hg10 mi
2:53 PM84 °FSunny.8 mph20%29.90 "Hg10 mi
1:53 PM81 °FSunny.No wind23%29.92 "Hg10 mi
12:53 PM80 °FSunny.6 mph26%29.93 "Hg10 mi
11:53 AM78 °FSunny.5 mph32%29.95 "Hg10 mi
10:53 AM73 °FSunny.3 mph34%29.96 "Hg10 mi
9:53 AM70 °FSunny.No wind47%29.96 "Hg10 mi
8:53 AM67 °FScattered clouds.3 mph51%29.97 "Hg10 mi
7:53 AM62 °FSunny.No wind58%29.95 "Hg10 mi
6:53 AM57 °FSunny.3 mph67%29.96 "Hg10 mi
5:53 AM55 °FClear.No wind69%29.95 "Hg10 mi
4:53 AM55 °FClear.No wind67%29.94 "Hg10 mi
3:53 AM56 °FClear.No wind62%29.95 "Hg10 mi
2:53 AM58 °FClear.No wind58%29.93 "Hg10 mi
1:53 AM57 °FClear.No wind58%29.93 "Hg10 mi
12:53 AM61 °FClear.No wind50%29.93 "Hg10 mi
11:53 PM
Sun, May 1
61 °FClear.3 mph52%29.94 "Hg10 mi
10:53 PM65 °FClear.3 mph45%29.93 "Hg10 mi
9:53 PM67 °FClear.8 mph42%29.94 "Hg10 mi
8:53 PM69 °FSunny.10 mph36%29.93 "Hg10 mi
Weather by CustomWeather, © 2016

See weather overviewHow to use our weather pages